FALCON HEAVY DEB, 55266

Orbit data source: Space-Track

FALCON HEAVY DEB, 55266 is space debris in GEO originally from a launch on Sun, 15 Jan 2023 UTC launched from the Air Force Eastern Test Range (AFETR). Debris objects in space refer to the collection of defunct objects orbiting the Earth. Examples of debris include non-operational satellites, rocket bodies, and fragments generated from explosions, collisions, or faulty payload assembly.

Loading next visibility...
Identifier
55266, 2023-008D
Orbit
GEO
Country
Flag of USUS
Related business
Manufacturer
SpaceX
Mission
Spacecraft
Bus & Motor
Unknown
Mass
Unknown
Launch date (UTC)
2023-01-15 (3 years ago)
Launch vehicle
Unknown
Launch site
Air Force Eastern Test Range (AFETR)
Object type
Payload
Rocket body
Debris
Shape & HBR
Unknown shape, 1.1 m
Radar Cross Section
RCS unknown

Expand to show TLE details & history
Last TLE update: 21 hours ago

TLE from 21 hours ago
0 FALCON HEAVY DEB
1 55266U 23008D   26105.03212646 -.00000113  00000-0  00000-0 0  9991
2 55266   2.9921  78.8237 0009369  65.1201 295.2539  1.02408893  7384
Epoch: 2026-04-15T00:46Z
TLE epoch observation values (Epoch: 2026-04-15T00:46:15.726Z)
Latitude
-0.00001°
Longitude
-135.6729°
Altitude
35,181.03 km
Speed
3.098 km/s
True Right ascension
05h 16m 22s
True Declination
0° 00' 00"
Sunlit
Object was in daylight at epoch
Visualization orbit readout
Latitude
Unknown
Longitude
Unknown
Altitude
Unknown
Speed
Unknown
Apparent Right ascension
Unknown
Apparent Declination
Unknown
Sunlit
N/A
Visualization observer readout
Local Sidereal Time
04:39:28
Azimuth
Unknown
Elevation
Unknown
Doppler factor
Unknown
Orbital elements
Apogee altitude
35,237.963 km
Perigee altitude
35,160.056 km
Semi-major axis
41,577.147 km
Eccentricity
0.00094
Inclination
2.9921°
RAAN
78.8237°
Arg. of periapsis
65.1201°
True anomaly
295.15675°
Mean anomaly
295.2539°
Eccentric anomaly
295.20533°
Mean motion
0.25601 °/min
Orbital period
1,406.18 mins
BSTAR
0
Loading maneuver chart data...
Computing Atmospheric mass density...
Loading historical data...
Loading historical data...
Loading historical data...
Loading historical data...
Loading historical data...
Loading historical data...
Loading historical data...
Other satellites on launch #8 in the year 2023 (2023-01-15 UTC)

Documentation

Showing up to 5 results
|